Погода в Коканде

Узбекистан     40°32′20″N   70°56′25″E
темп.,
°C
ветер,
м/с
пор.,
м/с
влажн.,
%
обл.,
%
осадки,
мм/ч
давл.,
гПа
погр.,
м
19 января, ср
ср1923:00+7вюв1278100 0.0 101321
02:00+6ююв2280100 0.0 101232
05:00+6в0181100 0.0 101211
08:00+6ююз1181100 0.1 101322
11:00+7зюз4781100 0.7 1016483
14:00+9зюз101251100 0.1 1016800
17:00+7зюз8135799 0.1 1019687
20:00+6зюз711575 0.0 1021537
20 января, чт
чт2023:00+5зюз711615 0.0 1022475
02:00+4зюз511655 0.0 1024386
05:00+3з36755 0.0 1025218
08:00+2зюз12795 0.0 102668
11:00+5всв11612 0.0 1025410
14:00+8всв23504 0.0 1022802
17:00+7всв34521 0.0 1020497
20:00+6в22590 0.0 102060
21 января, пт
пт2123:00+5вюв23620 0.0 101872
02:00+3в24660 0.0 1016107
05:00+2всв24620 0.0 1014139
08:00+2в23650 0.0 101398
11:00+5всв22440 0.0 1012354
14:00+8ссв11300 0.0 1010473
17:00+8всв34310 0.0 1011305
20:00+5в24386 0.0 1015124
22 января, сб
сб2223:00+4в2439100 0.0 1016108
02:00+4св1140100 0.0 101812
05:00+4з1139100 0.0 101912
08:00+3в1140100 0.0 102120
11:00+6зюз1438100 0.0 1023473
14:00+7зюз6759100 0.0 1022970
17:00+5зюз5770100 0.0 1023706
20:00+4зюз5882100 0.0 1025483
23 января, вс
вс2323:00+3зюз4790100 0.0 1025425
02:00+3зюз3483100 0.0 1025576
05:00+3зюз238196 0.0 1025233
08:00+3зюз128797 0.1 1026230
11:00+4зсз117996 0.1 1026527
14:00+5ююз016296 0.0 1024994
17:00+5ююз115880 0.1 1024970
20:00+5зюз115839 0.0 102531